Regional Weather Roundup
Issued by NWS

Home | Current Version | Previous Version | Text Only | Print | Product List | Glossary On
Versions: 1 2 3 4 5 6 7 8 9 10 11 12 13 14 15 16 17 18 19 20 21 22 23 24 25 26 27 28 29 30 31 32 33 34 35 36 37 38 39 40 41 42 43 44 45 46 47 48 49 50
000
ASUS43 KLMK 172210
RWRKY
KENTUCKY REGIONAL WEATHER ROUNDUP
NATIONAL WEATHER SERVICE LOUISVILLE KY
600 PM EDT THU AUG 17 2017

NOTE "FAIR" INDICATES FEW OR NO CLOUDS BELOW 12,000 FEET
WITH NO SIGNIFICANT WEATHER AND/OR OBSTRUCTIONS TO VISIBILITY.

KYZ001>023-026-027-061>063-070>075-172300-
WESTERN AND SOUTH CENTRAL KENTUCKY

CITY           SKY/WX    TMP DP  RH WIND       PRES   REMARKS
PADUCAH        PTSUNNY   84  70  62 W13       29.88F
HENDERSON      CLOUDY    84  73  69 SW9G18    29.86F HX  90
OWENSBORO      CLOUDY    79  76  90 SW9       29.88F
HOPKINSVILLE   CLOUDY    86  75  69 SW16      29.90F HX  95
BOWLING GREEN  CLOUDY    88  73  61 SW16G23   29.91F HX  95
GLASGOW        PTSUNNY   87  71  57 SW10      29.92S HX  93
$$

KYZ024-025-028>034-038-045-046-053-172300-
NORTH CENTRAL KENTUCKY

CITY           SKY/WX    TMP DP  RH WIND       PRES   REMARKS
LOUISVILLE/SDF TSTM      78  74  87 W12       29.87S VSB 1
LOUISVILLE/LOU RAIN      78  76  93 S17G23    29.87R FOG
FORT KNOX      MOSUNNY   84  72  66 S15G21    29.87R HX  90
$$

KYZ035>037-039>044-047>052-055>060-089>105-172300-
NORTHEAST KENTUCKY

CITY           SKY/WX    TMP DP  RH WIND       PRES   REMARKS
LEXINGTON      SUNNY     88  70  55 SW13G22   29.90S HX  93
COVINGTON      CLOUDY    80  76  87 S12       29.87S
FRANKFORT      MOSUNNY   89  70  53 SW12      29.87S HX  94
$$

KYZ054-064>069-076>088-106>120-172300-
SOUTHEAST KENTUCKY

CITY           SKY/WX    TMP DP  RH WIND       PRES   REMARKS
JACKSON        PTSUNNY   88  73  61 VRB3      29.96R HX  95
LONDON         SUNNY     88  68  51 SW8       29.95F HX  91
SOMERSET       MOSUNNY   84  68  58 W10       29.95S
MIDDLESBORO    MOSUNNY   87  74  63 S5        29.97S HX  95
MONTICELLO     PTCLDY    88  73  61 W14G22    29.96S HX  95
$$




USA.gov is the U.S. government's official web portal to all federal, state and local government web resources and services.